Location: Newark
(40.7360°N, 74.1730°W)
Time: 09:04:44
(UTC-05:00)

ISS - All Passes

Search period start: 15 December 2017 00:00
Search period end: 25 December 2017 00:00
Orbit: 402 x 407 km, 51.6° (Epoch: 15 December)

Date Brightness Start Highest point End Pass type
(mag) Time Alt. Az. Time Alt. Az. Time Alt. Az.
15 Dec - 10:05:28 10° S 10:07:29 15° SE 10:09:32 10° E daylight
15 Dec - 11:40:25 10° WSW 11:43:39 58° NNW 11:46:55 10° NE daylight
15 Dec - 13:18:31 10° NW 13:20:41 16° NNW 13:22:50 10° NNE daylight
15 Dec - 14:56:33 10° NNW 14:58:12 13° N 14:59:50 10° NE daylight
15 Dec - 16:32:34 10° NW 16:35:30 29° NNE 16:38:25 10° E daylight
15 Dec - 18:08:57 10° WNW 18:12:01 37° SW 18:15:05 10° SSE visible
16 Dec - 10:48:06 10° SW 10:51:23 74° SE 10:54:40 10° ENE daylight
16 Dec - 12:25:35 10° WNW 12:28:10 21° NNW 12:30:44 10° NNE daylight
16 Dec - 14:04:06 10° NNW 14:05:35 12° N 14:07:05 10° NNE daylight
16 Dec - 15:40:29 10° NNW 15:43:03 20° NNE 15:45:35 10° ENE daylight
16 Dec - 17:16:32 10° NW 17:19:50 76° SW 17:23:06 10° SE visible
17 Dec - 09:56:08 10° SSW 09:59:11 36° SE 10:02:15 10° ENE daylight
17 Dec - 11:32:45 10° W 11:35:42 29° NNW 11:38:38 10° NE daylight
17 Dec - 13:11:20 10° NW 13:12:59 13° N 13:14:38 10° NNE daylight
17 Dec - 14:48:22 10° NNW 14:50:30 16° NNE 14:52:39 10° NE daylight
17 Dec - 16:24:17 10° NW 16:27:32 56° NNE 16:30:46 10° ESE daylight
17 Dec - 18:01:38 10° W 18:03:42 16° SW 18:05:46 10° S visible
18 Dec - 09:04:37 10° S 09:07:03 19° SE 09:09:29 10° E daylight
18 Dec - 10:40:06 10° WSW 10:43:17 47° NNW 10:46:30 10° NE daylight
18 Dec - 12:18:23 10° NW 12:20:23 15° NNW 12:22:24 10° NNE daylight
18 Dec - 13:56:11 10° NNW 13:57:55 13° N 13:59:40 10° NE daylight
18 Dec - 15:32:07 10° NW 15:35:09 33° NNE 15:38:11 10° E daylight
18 Dec - 17:08:40 10° WNW 17:11:35 30° SW 17:14:30 10° SSE visible
19 Dec - 09:47:40 10° SW 09:50:57 87° NW 09:54:15 10° NE daylight
19 Dec - 11:25:24 10° WNW 11:27:49 19° NNW 11:30:15 10° NNE daylight
19 Dec - 13:03:47 10° NNW 13:05:17 12° N 13:06:48 10° NNE daylight
19 Dec - 14:40:00 10° NNW 14:42:41 23° NNE 14:45:23 10° ENE daylight
19 Dec - 16:16:08 10° WNW 16:19:23 59° SW 16:22:37 10° SE daylight
20 Dec - 08:55:31 10° SSW 08:58:42 46° SE 09:01:52 10° ENE daylight
20 Dec - 10:32:29 10° W 10:35:18 25° NNW 10:38:07 10° NE daylight
20 Dec - 12:11:04 10° NNW 12:12:39 13° N 12:14:12 10° NNE daylight
20 Dec - 13:47:51 10° NNW 13:50:09 17° NNE 13:52:25 10° ENE daylight
20 Dec - 15:23:48 10° NW 15:27:05 70° NE 15:30:21 10° ESE daylight
20 Dec - 17:01:39 10° WSW 17:03:09 13° SW 17:04:38 10° SSW visible
21 Dec - 08:03:47 10° S 08:06:29 24° SE 08:09:12 10° ENE daylight
21 Dec - 09:39:43 10° W 09:42:50 39° NNW 09:45:58 10° NE daylight
21 Dec - 11:18:08 10° NW 11:19:59 14° N 11:21:52 10° NNE daylight
21 Dec - 12:55:40 10° NNW 12:57:32 14° N 12:59:24 10° NE daylight
21 Dec - 14:31:34 10° NW 14:34:41 39° NNE 14:37:48 10° E daylight
21 Dec - 16:08:19 10° WNW 16:11:02 24° SW 16:13:44 10° S daylight
22 Dec - 07:12:51 10° SSE 07:14:22 13° SE 07:15:52 10° ESE daylight
22 Dec - 08:47:10 10° WSW 08:50:26 70° NW 08:53:42 10° NE daylight
22 Dec - 10:25:06 10° WNW 10:27:22 17° NNW 10:29:39 10° NNE daylight
22 Dec - 12:03:18 10° NNW 12:04:52 13° N 12:06:26 10° NNE daylight
22 Dec - 13:39:23 10° NW 13:42:13 26° NNE 13:45:02 10° E daylight
22 Dec - 15:15:38 10° WNW 15:18:49 46° SW 15:21:58 10° SSE daylight
23 Dec - 07:54:52 10° SW 07:58:06 60° SE 08:01:21 10° ENE daylight
23 Dec - 09:32:06 10° WNW 09:34:47 23° NNW 09:37:29 10° NNE daylight
23 Dec - 11:10:40 10° NNW 11:12:11 12° N 11:13:42 10° NNE daylight
23 Dec - 12:47:13 10° NNW 12:49:39 19° NNE 12:52:04 10° ENE daylight
23 Dec - 14:23:12 10° NW 14:26:30 88° NE 14:29:47 10° SE daylight
24 Dec - 07:02:55 10° SSW 07:05:50 30° SE 07:08:45 10° ENE daylight
24 Dec - 08:39:14 10° W 08:42:15 33° NNW 08:45:18 10° NE daylight
24 Dec - 10:17:45 10° NW 10:19:29 13° N 10:21:14 10° NNE daylight
24 Dec - 11:55:01 10° NNW 11:57:01 15° NNE 11:59:01 10° NE daylight
24 Dec - 13:30:54 10° NW 13:34:07 47° NNE 13:37:17 10° ESE daylight
24 Dec - 15:07:56 10° W 15:10:21 19° SW 15:12:45 10° S daylight
